Regional Weather Roundup
Issued by NWS

Home | Current Version | Previous Version | Graphics & Text | Print | Product List | Glossary On
Versions: 1 2 3 4 5 6 7 8 9 10 11 12 13 14 15 16 17 18 19 20 21 22 23 24 25 26 27 28 29 30 31 32 33 34 35 36 37 38 39 40 41 42 43 44 45 46 47 48 49 50
000
ASUS43 KMPX 250601
RWRMN
WEATHER ROUNDUP FOR MINNESOTA
NATIONAL WEATHER SERVICE TWIN CITIES/CHANHASSEN MN
1200 AM CST THU DEC 25 2014


NOTE: "FAIR" INDICATES FEW OR NO CLOUDS BELOW 12,000 FEET WITH NO
SIGNIFICANT WEATHER AND/OR OBSTRUCTIONS TO VISIBILITY. N/A MEANS
CURRENT SKY AND/OR WEATHER CONDITIONS ARE NOT AVAILABLE.

MNZ060>063-068>070-250700-
   Twin Cities Metro

CITY           SKY/WX    TMP DP  RH WIND       PRES   REMARKS
TWIN CITIES    CLOUDY    31  27  85 SW9       29.59F WCI  23
6HR MIN TEMP:  31; 6HR MAX TEMP:  34;

ST PAUL        CLOUDY    31  28  89 SW7       29.61S WCI  24
CRYSTAL        CLOUDY    32  28  85 SW8       29.58F WCI  25
BLAINE         CLOUDY    34  32  93 SW8       29.58F WCI  27
LAKEVILLE      CLOUDY    30  27  86 SW6       29.59F WCI  24
EDEN PRAIRIE   CLOUDY    32  27  81 SW10      29.58F WCI  24
6HR MIN TEMP:  31; 6HR MAX TEMP:  34;

SOUTH ST PAUL  CLOUDY    32  29  88 SW9       29.60F WCI  24
LAKE ELMO      CLOUDY    32  30  93 W10       29.60F WCI  24
$$
MNZ001>005-007-008-013>017-022>024-027-028-250700-
   Northwest Minnesota

CITY           SKY/WX    TMP DP  RH WIND       PRES   REMARKS
BEMIDJI        CLOUDY    28  25  86 SW5       29.43S WCI  23
HALLOCK        CLOUDY    28  27  93 SW9       29.40S FOG     WCI  20
ROSEAU         CLOUDY    28  25  86 SW8       29.41S HAZE    WCI  20
WARROAD        CLOUDY    28  25  86 SW7       29.41S FOG     WCI  21
THIEF RVR FALL CLOUDY    28  27  93 SW12      29.43R WCI  18
CROOKSTON      CLOUDY    28  28 100 SW9       29.44F WCI  20
FOSSTON        CLOUDY    27  25  93 SW17      29.44R WCI  14
DETROIT LAKES  CLOUDY    30  28  93 SW8       29.47S WCI  23
MOORHEAD       CLOUDY    30  30 100 S9        29.49R WCI  22
PARK RAPIDS    CLOUDY    29  26  89 S9        29.45F WCI  20
MAHNOMEN       CLOUDY    28  26  91 SW15      29.45S WCI  17
$$
MNZ006-009>011-018-025>026-250700-
   North Central Minnesota

CITY           SKY/WX    TMP DP  RH WIND       PRES   REMARKS
BAUDETTE       CLOUDY    29  25  85 SW10      29.41S WCI  20
FLAG ISLAND    CLOUDY    28  27  93 SW10      29.39F WCI  19
INTL FALLS     CLOUDY    31  29  92 SW6       29.42S WCI  25
6HR MIN TEMP:  30; 6HR MAX TEMP:  32; 6HR PCP:  0.03;

WASKISH        CLOUDY    30  28  93 CALM      29.42F
BIG FORK       CLOUDY    30  28  93 S8        29.44S WCI  23
LONGVILLE      CLOUDY    28  27  93 S7        29.46F WCI  21
GRAND RAPIDS   CLOUDY    30  27  86 S8        29.46S WCI  23
CRANE LAKE     CLOUDY    30  28  93 CALM      29.46S
ORR            CLOUDY    30  27  86 CALM      29.42S
COOK           CLOUDY    30  28  93 S3        29.45S
WALKER         CLOUDY    28  25  89 SW8       29.45S WCI  20
$$
MNZ012-019>021-037-250700-
   Northeast Minnesota

CITY           SKY/WX    TMP DP  RH WIND       PRES   REMARKS
DULUTH         CLOUDY    32  28  85 W14       29.48R WCI  22
6HR MIN TEMP:  31; 6HR MAX TEMP:  32; 6HR PCP: TRACE;

ELY            LGT SNOW  30  28  93 SW5       29.44S WCI  25
HIBBING        CLOUDY    32  27  81 SW6       29.46S WCI  26
EVELETH        CLOUDY    32  30  93 SW9       29.47S WCI  24
DULUTH HARBOR  CLOUDY    34  30  86 SW9       29.52S WCI  26
TWO HARBORS    CLOUDY    36  30  80 SW5       29.47R
SILVER BAY     CLOUDY    32  30  93 CALM      29.46R
GRAND MARAIS     N/A     32  31  96 CALM      29.48S
G MARAIS ARPRT LGT SNOW  27  25  93 CALM      29.43S
$$
MNZ029>031-032-039>041-046>048-054>057-064-250700-
   West Central Minnesota

CITY           SKY/WX    TMP DP  RH WIND       PRES   REMARKS
FERGUS FALLS   CLOUDY    28  27  93 S9        29.53R WCI  20
WHEATON        CLOUDY    28  25  86 S9        29.53R WCI  20
MORRIS         CLOUDY    28  27  93 S13       29.51S WCI  18
ALEXANDRIA     CLOUDY    28  26  92 S13       29.51S WCI  17
ELBOW LAKE     CLOUDY    28  26  96 S15       29.50S WCI  16
WADENA         CLOUDY    28  27  93 S9        29.48R WCI  20
GLENWOOD       CLOUDY    28  27  93 S13       29.53R WCI  18
APPLETON       CLOUDY    28  27  93 S10       29.53F WCI  19
BENSON         CLOUDY    28  27  93 SW10      29.54R WCI  19
ORTONVILLE     CLOUDY    28  25  86 S6        29.52R WCI  22
MADISON          N/A     32  28  86 S9        29.53S WCI  24
WILLMAR        MOCLDY    30  27  86 S5        29.57S WCI  25
$$
MNZ033>034-036-042>043-049>051-058-059-250700-
   Central Minnesota

CITY           SKY/WX    TMP DP  RH WIND       PRES   REMARKS
ST CLOUD       CLOUDY    33  27  78 S15       29.55S WCI  23
6HR MIN TEMP:  33; 6HR MAX TEMP:  34;

SAUK CENTRE    CLOUDY    28  27  93 SW10      29.53R WCI  19
PAYNESVILLE    CLOUDY    27  26  96 SE10      29.55S WCI  17
AITKIN         CLOUDY    34  27  75 S6        29.48F WCI  29
PINE RIVER     CLOUDY    28  27  93 S8        29.52S WCI  20
BRAINERD       CLOUDY    29  27  92 SW10      29.50F WCI  20
STAPLES        CLOUDY    28  27  93 S8        29.49S WCI  20
LONG PRAIRIE   CLOUDY    28  28 100 W9        29.52S WCI  20
LITTLE FALLS   CLOUDY    30  28  93 S8        29.53S WCI  23
LITCHFIELD     CLOUDY    30  30 100 S6        29.57S WCI  24
BUFFALO        CLOUDY    31  28  88 S12       29.59S WCI  22
MAPLE LAKE     CLOUDY    32  30  92 SW6       29.57F WCI  26
$$
MNZ037-044-045-052-053-250700-
   East Central Minnesota

CITY           SKY/WX    TMP DP  RH WIND       PRES   REMARKS
PRINCETON      CLOUDY    32  28  86 S6        29.56F WCI  26
MORA           CLOUDY    32  28  86 SW10G16   29.55F WCI  24
CAMBRIDGE      CLOUDY    34  25  69 SW9       29.54F WCI  26
RUSH CITY      CLOUDY    31  28  88 SW10      29.55F WCI  23
MOOSE LAKE     CLOUDY    32  28  86 SW8       29.50S WCI  25
HINCKLEY       CLOUDY    32  30  93 SW12G18   29.54S WCI  23
CLOQUET        CLOUDY    32  28  86 SW8       29.49S WCI  25
MCGREGOR       CLOUDY    32  28  86 SW10      29.50S WCI  24
$$
MNZ071>073-080-081-089-090-097-098-250700-
   Southwest Minnesota

CITY           SKY/WX    TMP DP  RH WIND       PRES   REMARKS
MONTEVIDEO     CLOUDY    28  28 100 SW9       29.56S WCI  20
GRANITE FALLS  CLOUDY    28  26  91 S12       29.57F WCI  18
CANBY          CLOUDY    28  25  88 S6        29.54S WCI  22
MARSHALL       CLOUDY    27  21  80 S15       29.55F WCI  15
REDWOOD FALLS  MOCLDY    29  26  89 S12       29.58F WCI  19
OLIVIA         CLOUDY    28  27  93 S13       29.57S WCI  18
PIPESTONE      CLOUDY    27  25  93 S10       29.54F FOG     WCI  17
WINDOM         CLOUDY    27  25  93 S14       29.58S WCI  15
WORTHINGTON    CLOUDY    25 -20  13 S17       29.58F WCI  11
JACKSON        CLOUDY    28  27  93 SW16      29.61S FOG     WCI  17
TRACY          CLOUDY    28  26  92 S14       29.56S WCI  17
SLAYTON        CLOUDY    25  25  98 S14       29.56F WCI  14
$$
MNZ065>067-074>077-082>085-091>093-250700-
   South Central Minnesota

CITY           SKY/WX    TMP DP  RH WIND       PRES   REMARKS
MANKATO        CLOUDY    28  23  80 SW13      29.61F WCI  18
NEW ULM        CLOUDY    28  27  93 SW13      29.60F WCI  18
ST JAMES       CLOUDY    28  27  93 S13       29.62F WCI  18
FAIRMONT       CLOUDY    27  23  86 SW14      29.61F WCI  15
GLENCOE        CLOUDY    31  30  95 S10G16    29.59S WCI  22
FARIBAULT      CLOUDY    30  28  93 SW10G18   29.61F WCI  21
OWATONNA       CLOUDY    30  28  93 SW15      29.62S WCI  19
ALBERT LEA     CLOUDY    28  28 100 SW12G17   29.62F FOG     WCI  18
$$
MNZ078>079-086>088-094>096-250700-
   Southeast Minnesota

CITY           SKY/WX    TMP DP  RH WIND       PRES   REMARKS
ROCHESTER      CLOUDY    30  28  92 SW15      29.62S WCI  19
6HR MIN TEMP:  29; 6HR MAX TEMP:  33; 6HR PCP: TRACE;

RED WING       CLOUDY    34  28  80 W7        29.61R WCI  28
STANTON        CLOUDY    33  29  85 SW13      29.60F WCI  24
DODGE CENTER   CLOUDY    30  28  93 W14G21    29.61S WCI  20
WINONA         CLOUDY    34  30  86 SW13      29.64S WCI  25
AUSTIN         CLOUDY    28  27  93 W15       29.64R WCI  17
PRESTON        CLOUDY    29  28  95 W10       29.64R WCI  20
$$
ABBREVIATIONS USED IN REMARKS
   TC - TEMPERATURES IN CELSIUS
  WCI - WIND CHILL INDEX
   HX - HEAT INDEX
  VSB - VISIBILITY
$$



USA.gov is the U.S. government's official web portal to all federal, state and local government web resources and services.